Location: Unspecified
(0.0000°N, 0.0000°E)
Time: 02:12:20
(UTC+00:00)

Kosmos-2154 - Pass Details

Date: 10 June 2023
Orbit: 968 x 1007 km, 82.9° (Epoch: 25 September)

Event Time Altitude Azimuth Distance (km) Brightness Sun altitude
Exits shadow 20:36:57 25° 6° (N) 1,856 7.6 -35.7°
Drops below altitude 10° 20:39:16 10° 5° (N) 2,699 8.5 -36.2°
Sets 20:41:45 0° 5° (N) 3,642 9.3 -36.8°
